Location: Aiyekoto
(8.4333°N, 4.3667°E)
Time: 20:48:46
(UTC+00:00)

Cosmos 1934 Rocket - Visible Passes

Search period start: 18 June 2021 00:00
Search period end: 28 June 2021 00:00
Orbit: 937 x 1000 km, 83.0° (Epoch: 18 June)

Date Brightness Start Highest point End Pass type
(mag) Time Alt. Az. Time Alt. Az. Time Alt. Az.
18 Jun 4.9 19:15:36 10° NNE 19:20:43 27° E 19:21:17 27° E visible
18 Jun 5.8 21:00:47 10° NW 21:05:37 24° W 21:05:51 24° W visible
19 Jun 4.0 19:37:57 10° N 19:43:59 56° E 19:45:09 49° SE visible
19 Jun 6.6 21:27:37 10° W 21:28:47 11° W 21:29:43 10° W visible
20 Jun 4.1 20:01:04 10° N 20:07:14 72° W 20:09:04 47° SSW visible
21 Jun 5.3 18:41:17 10° NE 18:45:29 19° E 18:48:28 14° ESE visible
21 Jun 5.3 20:24:56 10° NNW 20:30:27 34° W 20:33:03 25° SW visible
22 Jun 4.4 19:03:03 10° NNE 19:08:48 39° E 19:12:30 21° SE visible
22 Jun 6.4 20:49:57 10° NW 20:53:38 16° W 20:57:05 11° SW visible
23 Jun 3.9 19:25:50 10° N 19:32:03 82° E 19:36:35 20° S visible
24 Jun 4.8 19:49:19 10° NNW 19:55:17 49° W 20:00:44 13° SSW visible
25 Jun 4.9 18:28:22 10° NNE 18:33:35 28° E 18:38:51 10° SE visible
25 Jun 6.0 20:13:40 10° NW 20:18:29 24° W 20:23:23 10° SW visible
26 Jun 4.1 18:50:45 10° N 18:56:52 58° E 19:03:04 10° SSE visible
26 Jun 6.8 20:40:43 10° W 20:41:39 10° W 20:42:35 10° W visible
27 Jun 4.3 19:13:55 10° N 19:20:07 70° W 19:26:25 10° S visible
